This demonstration page uses our WeatherBlox Daily Observations layout. Learn more.

Left ArrowRight Arrow

31.31129, -92.44514

Hourly Observations for December 5, 2021

Temp ( °F °C ) Dew Point ( °F °C ) Humidity (%) Winds ( mph kmh ) Pressure ( in mb ) Visibility ( mi km ) Precip ( " mm )
12:20 am 00:20 Clear with Mist and Fog 63 17.2 60 15.6 90 90 Calm 30.07 1018 2 3 0.00 0.00
12:27 am 00:27 Clear with Mist and Fog 62 16.7 60 15.6 93 93 Calm 30.07 1018 6 10 0.00 0.00
12:53 am 00:53 Clear with Mist and Fog 62 16.7 60 15.6 93 93 Calm 30.07 1018 6 10 0.00 0.00
1:53 am 01:53 Clear with Mist and Fog 62 16.7 59 15 90 90 ESE 8 13 30.07 1018 6 10 0.00 0.00
2:50 am 02:50 Mostly Clear with Mist and Fog 61 16 59 15 94 94 SE 5 7 30.05 1018 4 6 0.00 0.00
2:53 am 02:53 Mostly Clear with Mist and Fog 60 15.6 59 15 96 96 SE 5 7 30.06 1018 4 6 0.00 0.00
3:04 am 03:04 Mostly Clear with Mist and Fog 59 15 58 14.4 96 96 Calm 30.05 1018 2 3 0.00 0.00
3:10 am 03:10 Mostly Cloudy with Mist and Fog 61 16.1 59 15 93 93 SE 3 6 30.05 1018 1 1 0.00 0.00
3:26 am 03:26 Mostly Cloudy with Fog 59 15 58 14.4 96 96 SE 5 7 30.04 1017 0 0 0.00 0.00
3:53 am 03:53 Mostly Cloudy with Fog 57 13.9 55 12.8 93 93 Calm 30.06 1018 0 0 0.00 0.00
4:25 am 04:25 Mostly Cloudy with Fog 60 15.6 58 14.4 93 93 Calm 30.05 1018 N/A 0.00 0.00
4:30 am 04:30 Mostly Cloudy with Fog 60 15.6 58 14.4 93 93 Calm 30.05 1018 0 0 0.00 0.00
4:53 am 04:53 Cloudy with Fog 57 13.9 55 12.8 93 93 NW 6 9 30.05 1018 0 0 0.00 0.00
5:23 am 05:23 Mostly Cloudy with Fog 56 13.3 55 12.8 97 97 SE 6 9 30.04 1017 1 1 0.00 0.00
5:31 am 05:31 Mostly Cloudy with Fog 58 14.4 56 13.3 93 93 SE 6 9 30.04 1017 0 0 0.00 0.00
5:39 am 05:39 Mostly Cloudy with Fog 59 15 58 14.4 96 96 SE 3 6 30.04 1017 1 1 0.00 0.00
5:49 am 05:49 Mostly Cloudy with Fog 57 14 55 13 94 94 SE 5 7 30.04 1017 0 0 0.00 0.00
5:50 am 05:50 Mostly Cloudy with Fog 57 13.9 56 13.3 96 96 SE 5 7 30.05 1018 0 0 0.00 0.00
5:59 am 05:59 Mostly Cloudy with Fog 57 13.9 56 13.3 96 96 SE 3 6 30.04 1017 1 1 0.00 0.00
6:12 am 06:12 Mostly Cloudy with Mist and Fog 57 13.9 55 12.8 93 93 SE 5 7 30.04 1017 3 4 0.00 0.00
6:53 am 06:53 Mostly Cloudy with Mist and Fog 56 13.3 55 12.8 97 97 SSE 3 6 30.07 1018 3 4 0.00 0.00
7:00 am 07:00 Mostly Cloudy with Fog 56 13.3 54 12.2 93 93 Calm 30.06 1018 0 0 0.00 0.00
7:07 am 07:07 Mostly Cloudy with Fog 56 13.3 54 12.2 93 93 SSE 5 7 30.06 1018 0 0 0.00 0.00
7:16 am 07:16 Mostly Cloudy with Fog 55 12.8 54 12.2 96 96 SSE 5 7 30.07 1018 N/A 0.00 0.00
7:24 am 07:24 Mostly Cloudy with Fog 56 13.3 54 12.2 93 93 SE 5 7 30.07 1018 0 0 0.00 0.00
7:45 am 07:45 Mostly Cloudy with Mist and Fog 58 14.4 57 13.9 97 97 Calm 30.07 1018 1 2 0.00 0.00
7:51 am 07:51 Partly Cloudy with Mist and Fog 57 14 57 14 100 100 Calm 30.07 1018 2 3 0.00 0.00
7:53 am 07:53 Partly Cloudy with Mist and Fog 58 14.4 57 13.9 97 97 Calm 30.08 1019 3 5 0.00 0.00
8:53 am 08:53 Sunny 63 17.2 60 15.6 90 90 SE 6 9 30.08 1019 10 16 0.00 0.00
9:53 am 09:53 Sunny 69 20.6 59 15 70 70 S 6 9 30.08 1019 10 16 0.00 0.00
10:53 am 10:53 Sunny 74 23.3 61 16.1 64 64 SSE 7 11 30.06 1018 10 16 0.00 0.00
11:53 am 11:53 Sunny 77 25 60 15.6 56 56 SW 7 11 30.02 1017 10 16 0.00 0.00
12:53 pm 12:53 Sunny 77 25 60 15.6 56 56 S 12 19 29.98 1015 8 13 0.00 0.00
1:53 pm 13:53 Cloudy with Haze 76 24.4 59 15 56 56 S 12 19 29.96 1015 3 5 0.00 0.00
2:49 pm 14:49 Cloudy with Haze 75 24 57 14 54 54 S 10 17 29.93 1013 2 3 0.00 0.00
2:53 pm 14:53 Cloudy with Haze 76 24.4 59 15 56 56 S 9 15 29.94 1014 3 4 0.00 0.00
3:25 pm 15:25 Cloudy with Haze 75 23.9 59 15 58 58 S 6 9 29.92 1013 4 6 0.00 0.00
3:53 pm 15:53 Cloudy with Haze 75 23.9 60 15.6 60 60 SSW 9 15 29.94 1014 4 6 0.00 0.00
4:27 pm 16:27 Cloudy with Haze 74 23.3 60 15.6 62 62 S 7 11 29.93 1013 4 6 0.00 0.00
4:53 pm 16:53 Cloudy with Haze 73 22.8 60 15.6 64 64 S 5 7 29.94 1014 4 6 0.00 0.00
5:00 pm 17:00 Cloudy with Haze 72 22.2 60 15.6 66 66 S 5 7 29.93 1013 3 4 0.00 0.00
5:07 pm 17:07 Cloudy with Haze 72 22.2 61 16.1 68 68 SSE 8 13 29.93 1013 4 6 0.00 0.00
5:21 pm 17:21 Hazy 72 22.2 61 16.1 68 68 SSE 9 15 29.93 1013 4 6 0.00 0.00
5:53 pm 17:53 Hazy 70 21.1 61 16.1 73 73 SSE 7 11 29.95 1014 4 6 0.00 0.00
6:53 pm 18:53 Clear 67 19.4 61 16.1 81 81 SSE 7 11 29.96 1014 10 16 0.00 0.00
7:53 pm 19:53 Clear 67 19.4 62 16.7 84 84 SSE 9 15 29.95 1014 10 16 0.00 0.00
8:53 pm 20:53 Clear 67 19.4 63 17.2 87 87 WSW 5 7 29.96 1015 10 16 0.00 0.00
9:53 pm 21:53 Clear 67 19.4 63 17.2 87 87 SSE 10 17 29.95 1014 10 16 0.00 0.00
10:30 pm 22:30 Mostly Cloudy 68 20 64 17.8 87 87 SSE 9 15 29.94 1014 9 14 0.00 0.00
10:53 pm 22:53 Cloudy 68 20 64 17.8 87 87 S 9 15 29.95 1014 9 14 0.00 0.00
11:53 pm 23:53 Cloudy 68 20 64 17.8 87 87 S 5 7 29.95 1014 10 16 0.00 0.00

Powered by AerisWeather